Regional Weather Roundup
Issued by NWS

Home | Current Version | Previous Version | Graphics & Text | Print | Product List | Glossary On
Versions: 1 2 3 4 5 6 7 8 9 10 11 12 13 14 15 16 17 18 19 20 21 22 23 24 25 26 27 28 29 30 31 32 33 34 35 36 37 38 39 40 41 42 43 44 45 46 47 48 49 50
000
ASUS45 KABQ 050001
RWRNM
NEW MEXICO REGIONAL WEATHER ROUNDUP
NATIONAL WEATHER SERVICE ALBUQUERQUE NM
500 PM MST SUN DEC 04 2016

NOTE: "FAIR" MEANS FEW OR NO CLOUDS BELOW 12,000 FEET AGL WITH NO
       SIGNIFICANT WEATHER OR OBSTRUCTIONS TO VISION.

      THIS PRODUCT IS RELEASED AS TWO VERSIONS.  ONE VERSION NEAR
      THE TOP OF THE HOUR CONTAINING PRELIMINARY DATA FROM ALBUQUERQUE
      AND OTHER STATIONS.  A FINAL VERSION WITH ADDITIONAL DATA IS
      ISSUED ABOUT 10 MINUTES AFTER THE HOUR.

NMZ501-503-504-510>518-050100-
NORTHWEST PLATEAU/NORTHCENTRAL MOUNTAINS

CITY           SKY/WX    TMP DP  RH WIND       PRES   REMARKS
FARMINGTON     FAIR      38  19  46 CALM      30.09S
6HR MIN TEMP:  32; 6HR MAX TEMP:  41;

LOS ALAMOS     FAIR      37  15  40 S5        30.07S WCI  34
SANTA FE       FAIR      39  14  36 SW5       30.05R
6HR MIN TEMP:  36; 6HR MAX TEMP:  46;

TAOS           FAIR      34   9  35 SE6       30.05F WCI  29
ANGEL FIRE     FAIR      31   5  33 S5        30.06R WCI  26

$$
NMZ402-403-502-505>509-050100-
WESTCENTRAL MOUNTAINS/SOUTHWEST MOUNTAINS

CITY           SKY/WX    TMP DP  RH WIND       PRES   REMARKS
GALLUP         FAIR      40  21  46 SW6       30.09R
6HR MIN TEMP:  33; 6HR MAX TEMP:  46;

GRANTS         FAIR      37  11  33 NW6       30.09R WCI  33
SILVER CITY    FAIR      47  26  43 S5        30.05

$$
NMZ407-409-411-412-050100-
SOUTHERN DESERTS

CITY           SKY/WX    TMP DP  RH WIND       PRES   REMARKS
DEMING         FAIR      51  25  36 S3        30.04S
6HR MIN TEMP:  50; 6HR MAX TEMP:  55;

LAS CRUCES     FAIR      53  19  26 CALM      30.04S
HOLLOMAN AFB   FAIR      52  26  36 CALM      30.06S
T OR C         FAIR      50  11  20 NE6       30.04R
6HR MIN TEMP:  46; 6HR MAX TEMP:  55;


$$
NMZ519>523-050100-
CENTRAL VALLEYS/CENTRAL HIGHLANDS

CITY           SKY/WX    TMP DP  RH WIND       PRES   REMARKS
ALBUQUERQUE    FAIR      45  13  27 S5        30.06F
6HR MIN TEMP:  40; 6HR MAX TEMP:  48;

DOUBLE EAGLE   CLEAR     41  16  36 SW7       30.06F
MORIARTY ARPT  FAIR      39   9  28 W8        30.05S WCI  33
6HR MIN TEMP:  39; 6HR MAX TEMP:  50;

CLINES CORNERS FAIR      35   9  33 W13       30.04F WCI  26
6HR MIN TEMP:  35; 6HR MAX TEMP:  46;

BELEN          FAIR      44  15  30 CALM      30.06F
6HR MIN TEMP:  39; 6HR MAX TEMP:  48;

SOCORRO        FAIR      44  15  30 N3        30.05F
6HR MIN TEMP:  42; 6HR MAX TEMP:  49;


$$
NMZ524>526-539-540-050100-
SOUTHCENTRAL MOUNTAINS

CITY           SKY/WX    TMP DP  RH WIND       PRES   REMARKS
RUIDOSO        FAIR      37  21  52 SE6       30.08S WCI  33

$$
NMZ527>531-050100-
NORTHEAST HIGHLANDS/NORTHEAST PLAINS

CITY           SKY/WX    TMP DP  RH WIND       PRES   REMARKS
LAS VEGAS      FAIR      36  15  42 S16       29.99F WCI  26
6HR MIN TEMP:  36; 6HR MAX TEMP:  46;

RATON          FAIR      38  17  42 SW3       29.97S
6HR MIN TEMP:  36; 6HR MAX TEMP:  43;

CLAYTON        FAIR      38  25  59 S15       29.96F WCI  29
6HR MIN TEMP:  38; 6HR MAX TEMP:  49;


$$
NMZ532>537-050100-
EASTCENTRAL PLAINS

CITY           SKY/WX    TMP DP  RH WIND       PRES   REMARKS
TUCUMCARI      FAIR      41  23  48 S7        30.00S
6HR MIN TEMP:  41; 6HR MAX TEMP:  51;

CANNON AFB     FAIR      42  28  56 SE6       30.04S
6HR MIN TEMP:  42; 6HR MAX TEMP:  51;

CLOVIS AIRPORT FAIR      37  27  65 S8        30.04S WCI  31

$$
NMZ028-029-538-050100-
SOUTHEAST PLAINS

CITY           SKY/WX    TMP DP  RH WIND       PRES   REMARKS
ROSWELL        FAIR      44  30  57 S3        30.04F
6HR MIN TEMP:  44; 6HR MAX TEMP:  51;

ARTESIA        FAIR      43  36  75 CALM      30.07S
CARLSBAD       FAIR      41  36  82 CALM      30.06F
6HR MIN TEMP:  41; 6HR MAX TEMP:  44;

HOBBS          CLEAR     45  36  70 E5        30.07R


$$




USA.gov is the U.S. government's official web portal to all federal, state and local government web resources and services.